Tracking 19854 objects as of 23-Sep-2019
HD Live streaming from Space Station
objects crossing your sky now

MOLNIYA 1-44


MOLNIYA 1-44 is no longer on orbit
MOLNIYA 1-44 is classified as:


NORAD ID: 11474
Int'l Code: 1979-070A
Perigee: N/A
Apogee: N/A
Inclination: N/A
Period: N/A
Semi major axis: N/A
RCS: N/A
Launch date: July 31, 1979
Source: Commonwealth of Independent States (former USSR) (CIS)
Launch site: PLESETSK MISSILE AND SPACE COMPLEX (PKMTR)
Decay date: 2017-10-23
aabbcc
Your satellite tracking list
Your tracking list is empty




NASA's NSSDC Master Catalog

Two Line Element Set (TLE):
1 11474U 79070A   17296.42201831  .15834611  92894-5  21815-3 0  9992
2 11474  61.9462 282.6348 0069946  92.1613   7.0055 16.39147440583828
Source of the keplerian elements: AFSPC